Regional Weather Roundup
Issued by NWS

Home | Current Version | Previous Version | Text Only | Print | Product List | Glossary On
Versions: 1 2 3 4 5 6 7 8 9 10 11 12 13 14 15 16 17 18 19 20 21 22 23 24 25 26 27 28 29 30 31 32 33 34 35 36 37 38 39 40 41 42 43 44 45 46 47 48 49 50
000
ASUS45 KBOU 280007
RWRCO

WEATHER ROUNDUP FOR COLORADO
NATIONAL WEATHER SERVICE DENVER/BOULDER CO
600 PM MDT WED AUG 27 2014

NOTE: "FAIR" INDICATES FEW OR NO CLOUDS BELOW 12000 FEET WITH NO
SIGNIFICANT WEATHER AND/OR OBSTRUCTIONS TO VISIBILITY.

COZ001>005-013-030-031-280100-
...NORTHWEST COLORADO...

CITY           SKY/WX    TMP DP  RH WIND       PRES   REMARKS
CRAIG          PTSUNNY   59  50  72 SE3       30.26F
HAYDEN         PTSUNNY   55  45  67 CALM      30.28S
MEEKER         CLOUDY    56  49  77 NE5       30.29R
MOUNT WERNER   NOT AVBL
STEAMBOAT SPGS PTSUNNY   57  48  72 SE3       30.29F
WALDEN         CLOUDY    50  45  81 W7        30.33S
$$

COZ006>008-011-280100-
...WEST CENTRAL VALLEYS...

CITY           SKY/WX    TMP DP  RH WIND       PRES   REMARKS
GRAND JUNCTION CLOUDY    67  51  56 CALM      30.21S
MONTROSE       CLOUDY    64  47  53 SE14G21   30.30R
EAGLE          PTSUNNY   63  45  51 W12       30.30S
RIFLE          PTSUNNY   65  48  54 N3        30.24R
DELTA          RAIN      67  53  61 SW16      30.27R
NUCLA          NOT AVBL
$$

COZ017>023-064>068-280100-
...SOUTHWEST COLORADO...

CITY           SKY/WX    TMP DP  RH WIND       PRES   REMARKS
DURANGO        NOT AVBL
CORTEZ         NOT AVBL
PAGOSA SPRINGS PTSUNNY   65  36  34 SW12      30.34S THUNDER
TELLURIDE      RAIN      46  43  87 W15G21    30.49R
WOLF CREEK PAS PTSUNNY   41  36  81 SW20G29   30.55R
$$

COZ009-010-012-014-032>034-037-058>063-280100-
...CENTRAL COLORADO...

CITY           SKY/WX    TMP DP  RH WIND       PRES   REMARKS
ASPEN          PTSUNNY   53  46  77 SE7       30.34F
BUENA VISTA    LGT RAIN  58  42  55 SE17      30.31R
COPPER MTN     CLOUDY    41  36  81 W16       30.55R
BERTHOUD PASS  TSTM      32  30  93 NW16G24   30.57S VSB<1/4 WCI  21
COTTONWOOD PAS CLOUDY    59  32  36 W5        30.41S
GUNNISON       PTSUNNY   55  37  50 N6        30.38R
KREMMLING      MOSUNNY   63  36  36 W15G23    30.32R
LEADVILLE      PTSUNNY   50  35  56 NW14G23   30.41R
MONARCH PASS   CLOUDY    37  36  93 SW21G31   30.64S
SALIDA         CLOUDY    60  43  52 SW7       30.35F
SUNLIGHT       PTSUNNY   45  43  93 CALM      30.50S
WILKERSON PASS NOT AVBL
$$

COZ069>075-280100-
...SAN LUIS VALLEY/SANGRE DE CRISTO MOUNTAINS...

CITY           SKY/WX    TMP DP  RH WIND       PRES   REMARKS
ALAMOSA        MOSUNNY   71  30  21 SW16G23   30.26R
LA VETA PASS   NOT AVBL
SAGUACHE       PTSUNNY   63  41  45 N12       30.31S
$$

COZ035-036-038>040-280100-
...NORTHERN COLORADO FRONT RANGE...

CITY           SKY/WX    TMP DP  RH WIND       PRES   REMARKS
DENVER INTL AP PTSUNNY   65  56  72 N17       30.09R
DMNS CITY PARK   N/A     72  54  52 NE7G20    30.10R
AURORA         PTSUNNY   68  55  62 N20G25    30.12R
FRONT RANGE AP NOT AVBL
ERIE MUNI ARPT MOSUNNY   68  52  56 N8        30.09R
BOULDER MUN AP PTSUNNY   68  54  60 NE3       30.10R
CENTENNIAL     PTSUNNY   72  50  45 N13       30.11S
BROOMFIELD     PTSUNNY   72  50  46 NW9       30.11
FORT COLLINS   PTSUNNY   64  54  68 N12       30.10R
LONGMONT       PTSUNNY   71  54  56 NE3       30.11R
$$

COZ041-046-047-076>085-087-088-280100-
...PIKES PEAK/PALMER DIVIDE AND SOUTHERN FOOTHILLS...

CITY           SKY/WX    TMP DP  RH WIND       PRES   REMARKS
COLO. SPRINGS  PTSUNNY   79  42  26 NW13      30.11S
A. F. ACADEMY  PTSUNNY   72  41  31 W9        30.13F
ELLICOTT       PTSUNNY   78  43  28 S9        30.09F
FALCON         PTSUNNY   73  42  31 SW7       30.16S
FORT CARSON    PTSUNNY   81  42  24 W10       30.08S
LIMON          MOSUNNY   77  52  41 E5        30.06F
MONUMENT HILL  MOSUNNY   68  52  56 N6        30.17F
TRINIDAD       MOSUNNY   80  46  30 S5        30.08S
$$

COZ042>045-048>051-090-091-280100-
...NORTHEAST COLORADO...

CITY           SKY/WX    TMP DP  RH WIND       PRES   REMARKS
GREELEY ARPT   PTSUNNY   73  55  53 NE12      30.08F
AKRON          CLOUDY    77  59  53 NW8       30.03S
BURLINGTON     SUNNY     80  61  52 SE8       30.01F
WRAY             N/A     80  63  55 SE9       29.98F
STERLING       MOSUNNY   79  61  53 N10       30.01S
HOLYOKE        MOSUNNY   79  66  65 SE7       29.99F
FORT MORGAN    MOSUNNY   73  57  57 NE9       30.05R
$$

COZ086-089-092>099-280100-
...SOUTHEAST COLORADO...

CITY           SKY/WX    TMP DP  RH WIND       PRES   REMARKS
PUEBLO         MOSUNNY   85  50  29 SE12      29.99S
LA JUNTA       MOSUNNY   84  53  34 SE8       29.97F
LAMAR          SUNNY     88  53  30 SW6       29.93F
SPRINGFIELD      N/A     81  56  42 S17       30.02F
$$



USA.gov is the U.S. government's official web portal to all federal, state and local government web resources and services.